(512022) = 2010 MO18 = 2015 LB42

Discovered at Kitt Peak on 2006-05-24 by Spacewatch.

Orbit

Orbit type: Main Belt

Note: WebGL enabled browser required.

epoch2024-03-31.0
epoch JD2460400.5
perihelion date2020-03-25.59820
perihelion JD2458934.09821
argument of perihelion (°)185.33464
ascending node (°)114.02685
inclination (°)12.34370
eccentricity0.1259295
perihelion distance (AU)2.3469233
Tisserand w.r.t. Jupiter3.3
ΔV w.r.t. Earth (km/sec)10.3
semimajor axis (AU)2.6850505
mean anomaly (°)328.49470
mean daily motion (°/day)0.22401410
aphelion distance (AU)3.023
period (years)4.4
P-vector [x]0.48835504
P-vector [y]-0.79252255
P-vector [z]-0.36526341
Q-vector [x]0.85052082
Q-vector [y]0.52592635
Q-vector [z]-0.00397622
absolute magnitude17.18
phase slope0.15
uncertainty0
referenceE2024-GL3
observations used158
oppositions11
arc length (days)6169
first opposition used2006
last opposition used2023
residual rms (arc-secs)0.72
perturbers coarse indicatorM-v
perturbers precise indicator003Ek
first observation date used2006-05-24.0
last observation date used2023-04-14.0
computer nameMPCLINUX
JD of orbit computation2458142.222392
perihelion JD uncertainty (days)1.1989E-04
argument of perihelion uncertainty (°)3.7346E-05
ascending node uncertainty (°)2.6744E-05
inclination uncertainty (°)5.6216E-06
eccentricity uncertainty 5.1286E-08
perihelion distance uncertainty (AU)1.3022E-07
Minimum Orbit Intersection Distances (in AU)
for orbit epoch: 2460400.5, reference: E2024-GL3
Mercury1.90318
Venus1.61901
Earth1.33118
Mars0.93355
Jupiter2.17939
Saturn6.04982
Uranus15.5154
Neptune27.0282

Observations

149 total observations over interval: 2006 05 24.28030 – 2023 04 14.290332
These data are available for download (format description).

